�������l�o���
Date,Time,MP-1(��Sv/h),MP-2(��Sv/h),MP-3(��Sv/h),MP-4(��Sv/h),MP-5(��Sv/h),MP-6(��Sv/h),MP-7(��Sv/h),MP-8(��Sv/h),����,����(m/s),���J
2019/11/29,00:00,0.695,1.006,0.673,1.246,0.880,0.404,0.707,0.672,�k�k��,6.9,��
2019/11/29,00:10,0.695,1.005,0.675,1.246,0.881,0.403,0.708,0.673,�k�k��,7.4,��
2019/11/29,00:20,0.694,1.006,0.675,1.246,0.879,0.402,0.708,0.673,�k,8.0,��
2019/11/29,00:30,0.696,1.006,0.673,1.245,0.882,0.402,0.707,0.673,�k,7.5,��
2019/11/29,00:40,0.696,1.008,0.674,1.247,0.879,0.402,0.708,0.674,�k,8.2,��
2019/11/29,00:50,0.694,1.007,0.672,1.247,0.881,0.403,0.707,0.673,�k,7.1,��
2019/11/29,01:00,0.694,1.008,0.674,1.247,0.879,0.403,0.706,0.673,�k,6.9,��
2019/11/29,01:10,0.694,1.007,0.676,1.247,0.881,0.403,0.706,0.673,�k,6.9,��
2019/11/29,01:20,0.695,1.008,0.674,1.245,0.880,0.403,0.708,0.673,�k,7.7,��
2019/11/29,01:30,0.695,1.007,0.671,1.249,0.880,0.404,0.708,0.672,�k,7.1,��
2019/11/29,01:40,0.693,1.007,0.673,1.248,0.879,0.403,0.709,0.672,�k,7.7,��
2019/11/29,01:50,0.694,1.007,0.674,1.246,0.879,0.403,0.706,0.672,�k,8.0,��
2019/11/29,02:00,0.693,1.006,0.673,1.248,0.881,0.403,0.706,0.673,�k,7.8,��
2019/11/29,02:10,0.696,1.006,0.675,1.247,0.879,0.403,0.708,0.674,�k,8.0,��
2019/11/29,02:20,0.694,1.007,0.676,1.246,0.879,0.403,0.706,0.673,�k,6.7,��
2019/11/29,02:30,0.693,1.006,0.675,1.247,0.878,0.402,0.708,0.672,�k�k��,7.1,��
2019/11/29,02:40,0.694,1.007,0.675,1.247,0.879,0.403,0.708,0.673,�k�k��,6.9,��
2019/11/29,02:50,0.693,1.006,0.676,1.247,0.878,0.402,0.707,0.673,�k�k��,6.7,��
2019/11/29,03:00,0.695,1.006,0.672,1.248,0.880,0.402,0.707,0.672,�k�k��,7.5,��
2019/11/29,03:10,0.694,1.005,0.674,1.249,0.878,0.403,0.709,0.673,�k�k��,6.4,��
2019/11/29,03:20,0.693,1.006,0.675,1.246,0.879,0.404,0.708,0.672,�k�k��,6.6,��
2019/11/29,03:30,0.694,1.007,0.673,1.250,0.878,0.402,0.707,0.674,�k�k��,6.6,��
2019/11/29,03:40,0.695,1.007,0.673,1.247,0.880,0.401,0.707,0.673,�k�k��,6.6,��
2019/11/29,03:50,0.693,1.004,0.675,1.246,0.881,0.403,0.708,0.672,�k�k��,7.1,��
2019/11/29,04:00,0.694,1.006,0.675,1.245,0.878,0.403,0.707,0.673,�k�k��,6.9,��
2019/11/29,04:10,0.694,1.005,0.674,1.245,0.879,0.402,0.706,0.674,�k�k��,6.9,��
2019/11/29,04:20,0.693,1.006,0.675,1.248,0.879,0.402,0.707,0.673,�k�k��,7.5,��
2019/11/29,04:30,0.693,1.005,0.673,1.245,0.879,0.402,0.706,0.672,�k�k��,6.9,��
2019/11/29,04:40,0.692,1.004,0.675,1.246,0.879,0.401,0.707,0.673,�k�k��,7.4,��
2019/11/29,04:50,0.693,1.007,0.674,1.248,0.876,0.401,0.708,0.673,�k�k��,6.7,��
2019/11/29,05:00,0.692,1.008,0.673,1.246,0.879,0.403,0.707,0.673,�k�k��,6.6,��
2019/11/29,05:10,0.693,1.006,0.672,1.245,0.878,0.402,0.706,0.673,�k�k��,6.6,��
2019/11/29,05:20,0.694,1.002,0.674,1.249,0.880,0.403,0.709,0.673,�k�k��,6.1,��
2019/11/29,05:30,0.694,1.006,0.674,1.246,0.879,0.402,0.709,0.671,�k�k��,5.2,��
2019/11/29,05:40,0.694,1.004,0.674,1.247,0.878,0.402,0.708,0.672,�k�k��,5.8,��
2019/11/29,05:50,0.693,1.006,0.675,1.247,0.878,0.403,0.708,0.671,�k��,5.3,��
2019/11/29,06:00,0.693,1.005,0.675,1.246,0.879,0.403,0.706,0.672,�k��,4.6,��
2019/11/29,06:10,0.692,1.007,0.674,1.246,0.878,0.403,0.707,0.674,�k��,3.3,��
2019/11/29,06:20,0.692,1.005,0.673,1.244,0.877,0.402,0.707,0.672,�k�k��,2.4,��
2019/11/29,06:30,0.694,1.004,0.673,1.246,0.880,0.402,0.707,0.672,�k��,3.3,��
2019/11/29,06:40,0.694,1.006,0.674,1.244,0.878,0.403,0.706,0.673,�k��,3.8,��
2019/11/29,06:50,0.694,1.006,0.673,1.249,0.880,0.403,0.706,0.673,�k��,3.8,��
2019/11/29,07:00,0.692,1.005,0.672,1.246,0.878,0.401,0.708,0.673,�k��,4.9,��
2019/11/29,07:10,0.696,1.004,0.672,1.248,0.879,0.402,0.707,0.673,�k�k��,4.6,��
2019/11/29,07:20,0.693,1.004,0.673,1.251,0.880,0.403,0.707,0.673,�k��,5.0,��
2019/11/29,07:30,0.694,1.005,0.674,1.248,0.878,0.403,0.707,0.674,�k��,5.8,��
2019/11/29,07:40,0.694,1.003,0.673,1.247,0.880,0.403,0.706,0.671,�k��,6.3,��
2019/11/29,07:50,0.695,1.004,0.673,1.250,0.879,0.402,0.708,0.672,�k��,6.6,��
2019/11/29,08:00,0.693,1.002,0.673,1.248,0.880,0.402,0.707,0.674,�k��,6.0,��
2019/11/29,08:10,0.697,1.007,0.671,1.248,0.877,0.402,0.709,0.672,�k��,5.8,��
2019/11/29,08:20,0.696,1.005,0.674,1.249,0.879,0.402,0.708,0.673,�k��,4.9,��
2019/11/29,08:30,0.695,1.003,0.674,1.248,0.878,0.403,0.707,0.674,�k��,3.8,��
2019/11/29,08:40,0.696,1.007,0.674,1.249,0.879,0.403,0.709,0.673,�k��,4.1,��
2019/11/29,08:50,0.695,1.003,0.673,1.249,0.879,0.402,0.709,0.675,�k�k��,4.1,��
2019/11/29,09:00,0.698,1.005,0.674,1.248,0.881,0.403,0.708,0.673,�k�k��,4.4,��
2019/11/29,09:10,0.697,1.003,0.675,1.249,0.878,0.404,0.709,0.673,�k�k��,3.9,��
2019/11/29,09:20,0.697,1.007,0.676,1.249,0.879,0.401,0.709,0.674,�k�k��,4.3,��
2019/11/29,09:30,0.696,1.003,0.674,1.248,0.880,0.403,0.708,0.675,�k�k��,4.7,��
2019/11/29,09:40,0.696,1.003,0.674,1.248,0.880,0.403,0.709,0.672,�k�k��,4.5,��
2019/11/29,09:50,0.697,1.005,0.673,1.249,0.881,0.403,0.706,0.672,�k,3.8,��
2019/11/29,10:00,0.696,1.003,0.675,1.250,0.879,0.402,0.708,0.673,�k,3.9,��
2019/11/29,10:10,0.695,1.005,0.677,1.248,0.882,0.404,0.708,0.672,�k�k��,2.9,��
2019/11/29,10:20,0.695,1.003,0.676,1.249,0.878,0.403,0.708,-,�k�k��,3.2,��
2019/11/29,10:30,0.694,1.003,0.676,1.249,0.880,0.403,0.707,-,�k�k��,4.4,��
2019/11/29,10:40,0.697,1.004,0.673,1.248,0.880,0.405,0.707,-,�k�k��,4.1,��
2019/11/29,10:50,0.697,1.003,0.677,1.249,0.883,0.404,0.708,-,�k�k��,3.4,��
2019/11/29,11:00,0.695,1.006,0.675,1.251,0.882,0.403,0.707,-,�k�k��,3.6,��
2019/11/29,11:10,0.698,1.004,0.675,1.248,0.883,0.404,0.708,-,�k��,3.8,��
2019/11/29,11:20,0.698,1.006,0.675,1.249,0.884,0.403,0.708,-,�k��,3.3,��
2019/11/29,11:30,0.699,1.004,0.675,1.249,0.884,0.404,0.708,-,�k�k��,3.6,��
2019/11/29,11:40,0.698,1.007,0.677,1.248,0.883,0.402,0.708,-,�k��,3.8,��
2019/11/29,11:50,0.697,1.007,0.676,1.250,0.885,0.403,0.711,-,�k��,3.0,��
2019/11/29,12:00,0.698,1.005,0.676,1.252,0.883,0.404,0.710,-,�k�k��,3.8,��
2019/11/29,12:10,0.699,1.005,0.677,1.251,0.882,0.404,0.710,-,�k��,2.8,��
2019/11/29,12:20,0.699,1.009,0.679,1.251,0.883,0.403,0.711,-,���k��,3.0,�L
2019/11/29,12:30,0.698,1.009,0.677,1.251,0.883,0.405,0.709,-,���k��,3.2,��
2019/11/29,12:40,0.698,1.010,0.678,1.253,0.884,0.404,0.710,-,���k��,3.0,��
2019/11/29,12:50,0.699,1.011,0.677,1.251,0.884,0.404,0.709,-,���k��,3.0,��
2019/11/29,13:00,0.699,1.010,0.677,1.252,0.885,0.405,0.710,-,�k��,3.3,��
2019/11/29,13:10,0.700,1.009,0.676,1.249,0.885,0.407,0.709,-,�k��,2.6,��
2019/11/29,13:20,0.701,1.008,0.677,1.251,0.883,0.404,0.710,-,���k��,2.4,��
2019/11/29,13:30,0.699,1.009,0.677,1.251,0.884,0.405,0.710,-,�k��,1.7,��
2019/11/29,13:40,0.697,1.008,0.677,1.252,0.885,0.405,0.708,-,���k��,1.2,��
2019/11/29,13:50,0.698,1.011,0.677,1.252,0.885,0.406,0.712,-,��,1.1,��
2019/11/29,14:00,0.700,1.009,0.676,1.251,0.886,0.405,0.711,-,�k��,1.5,��
2019/11/29,14:10,0.699,1.010,0.678,1.252,0.885,0.404,0.711,-,�k,1.5,��
2019/11/29,14:20,0.702,1.010,0.677,1.251,0.884,0.405,0.711,-,�k��,1.4,��
2019/11/29,14:30,0.701,1.009,0.677,1.253,0.887,0.404,0.710,0.675,�k��,0.8,��
2019/11/29,14:40,0.702,1.008,0.677,1.251,0.885,0.404,0.710,0.675,���쓌,1.6,��
2019/11/29,14:50,0.702,1.010,0.680,1.251,0.884,0.406,0.710,0.676,�쓌,1.5,��
2019/11/29,15:00,0.700,1.010,0.679,1.251,0.885,0.405,0.710,0.674,�k��,1.2,��
2019/11/29,15:10,0.700,1.009,0.678,1.251,0.884,0.405,0.710,0.675,���k��,1.2,��
2019/11/29,15:20,0.702,1.012,0.677,1.251,0.886,0.407,0.711,0.673,�쓌,1.0,��
2019/11/29,15:30,0.700,1.011,0.676,1.252,0.885,0.406,0.710,0.674,��,1.2,��
2019/11/29,15:40,0.700,1.014,0.678,1.251,0.885,0.406,0.711,0.675,��,2.1,��
2019/11/29,15:50,0.702,1.014,0.678,1.251,0.885,0.405,0.711,0.674,��,1.2,��
2019/11/29,16:00,0.701,1.011,0.678,1.251,0.886,0.406,0.710,0.675,��쐼,1.7,��
2019/11/29,16:10,0.701,1.011,0.678,1.252,0.885,0.407,0.710,0.674,��쐼,2.2,��
2019/11/29,16:20,0.701,1.010,0.678,1.251,0.885,0.405,0.711,0.675,��쐼,2.6,��
2019/11/29,16:30,0.701,1.011,0.677,1.250,0.883,0.405,0.711,0.674,��,2.6,��
2019/11/29,16:40,0.702,1.013,0.677,1.253,0.885,0.406,0.711,0.674,��,2.6,��
2019/11/29,16:50,0.699,1.012,0.678,1.251,0.885,0.406,0.710,0.674,��쐼,1.3,��
2019/11/29,17:00,0.701,1.011,0.680,1.250,0.885,0.406,0.709,0.674,��쐼,1.3,��
2019/11/29,17:10,0.701,1.012,0.677,1.251,0.882,0.407,0.709,0.674,�쐼,1.6,��
2019/11/29,17:20,0.701,1.015,0.678,1.252,0.884,0.406,0.709,0.673,�쐼,1.5,��
2019/11/29,17:30,0.699,1.011,0.677,1.252,0.885,0.406,0.708,0.674,�쐼,1.4,��
2019/11/29,17:40,0.700,1.012,0.677,1.252,0.883,0.406,0.711,0.673,���쐼,2.0,��
2019/11/29,17:50,0.700,1.010,0.678,1.251,0.883,0.408,0.710,0.673,�쐼,2.0,��
2019/11/29,18:00,0.698,1.011,0.677,1.251,0.885,0.408,0.709,0.676,���쐼,2.0,��
2019/11/29,18:10,0.701,1.011,0.676,1.250,0.884,0.407,0.708,0.674,��쐼,0.5,��
2019/11/29,18:20,0.702,1.012,0.677,1.251,0.882,0.407,0.711,0.674,��,1.3,��
2019/11/29,18:30,0.699,1.009,0.678,1.251,0.885,0.406,0.710,0.674,��,1.0,��
2019/11/29,18:40,0.700,1.014,0.676,1.253,0.885,0.406,0.709,0.676,���k��,1.9,��
2019/11/29,18:50,0.700,1.012,0.677,1.251,0.885,0.407,0.709,0.672,��,1.6,��
2019/11/29,19:00,0.700,1.012,0.677,1.251,0.884,0.406,0.709,0.674,���쐼,2.2,��
2019/11/29,19:10,0.700,1.014,0.679,1.251,0.882,0.406,0.709,0.674,�쐼,2.3,��
2019/11/29,19:20,0.699,1.012,0.678,1.251,0.884,0.406,0.709,0.673,��,3.8,��
2019/11/29,19:30,0.701,1.010,0.678,1.251,0.885,0.405,0.708,0.673,���k��,4.7,��
2019/11/29,19:40,0.698,1.011,0.678,1.250,0.885,0.405,0.709,0.673,���k��,5.2,��
2019/11/29,19:50,0.699,1.010,0.679,1.251,0.884,0.405,0.708,0.673,��,6.0,��
2019/11/29,20:00,0.698,1.013,0.678,1.250,0.884,0.405,0.709,0.675,��,6.0,�L
2019/11/29,20:10,0.699,1.008,0.680,1.254,0.884,0.405,0.709,0.675,��,5.2,��
2019/11/29,20:20,0.698,1.012,0.677,1.251,0.884,0.405,0.708,0.674,��,4.9,��
2019/11/29,20:30,0.698,1.013,0.678,1.249,0.884,0.405,0.709,0.674,��,3.9,��
2019/11/29,20:40,0.699,1.010,0.677,1.252,0.883,0.406,0.709,0.676,��,4.4,��
2019/11/29,20:50,0.698,1.009,0.678,1.252,0.883,0.406,0.709,0.674,���쐼,3.8,��
2019/11/29,21:00,0.700,1.010,0.679,1.253,0.885,0.406,0.708,0.675,���쐼,4.6,��
2019/11/29,21:10,0.698,1.009,0.677,1.252,0.883,0.405,0.707,0.675,���쐼,4.3,��
2019/11/29,21:20,0.699,1.010,0.678,1.250,0.885,0.406,0.710,0.675,��,4.2,��
2019/11/29,21:30,0.699,1.012,0.677,1.251,0.882,0.405,0.708,0.675,��,4.1,��
2019/11/29,21:40,0.699,1.012,0.676,1.251,0.881,0.405,0.709,0.673,��,3.9,��
2019/11/29,21:50,0.696,1.010,0.677,1.250,0.884,0.406,0.708,0.673,��,4.4,��
2019/11/29,22:00,0.698,1.007,0.679,1.250,0.883,0.406,0.709,0.675,��,4.3,��
2019/11/29,22:10,0.699,1.012,0.679,1.250,0.884,0.405,0.711,0.673,��,3.2,�L
2019/11/29,22:20,0.699,1.010,0.680,1.251,0.886,0.406,0.708,0.673,���k��,2.6,��
2019/11/29,22:30,0.699,1.010,0.677,1.251,0.883,0.405,0.709,0.675,���k��,3.3,��
2019/11/29,22:40,0.699,1.010,0.676,1.252,0.884,0.405,0.710,0.674,���k��,4.1,��
2019/11/29,22:50,0.698,1.011,0.678,1.252,0.886,0.405,0.709,0.674,���k��,3.9,��
2019/11/29,23:00,0.700,1.010,0.679,1.253,0.883,0.405,0.709,0.674,���k��,4.0,��
2019/11/29,23:10,0.699,1.011,0.678,1.253,0.883,0.405,0.709,0.673,�k��,3.5,��
2019/11/29,23:20,0.699,1.008,0.677,1.251,0.882,0.405,0.710,0.674,�k��,4.4,��
2019/11/29,23:30,0.700,1.012,0.678,1.252,0.882,0.406,0.710,0.674,�k��,4.2,��
2019/11/29,23:40,0.699,1.011,0.676,1.255,0.884,0.406,0.709,0.674,���k��,4.3,��
2019/11/29,23:50,0.698,1.013,0.678,1.254,0.882,0.406,0.707,0.673,�k��,4.9,��
